Time,TemperatureF,DewpointF,PressureIn,WindDirection,WindDirectionDegrees,WindSpeedMPH,WindSpeedGustMPH,Humidity,HourlyPrecipIn,Conditions,Clouds,dailyrainin,SoftwareType,DateUTC
2013-02-27 05:53:00,41.0,40.0,29.94,ENE,64,4.0,10.0,96,-99.99,,,-99.99,,2013-02-27 10:53:00,
2013-02-27 06:03:00,42.0,41.0,29.93,East,97,7.0,12.0,96,-99.99,,,-99.99,,2013-02-27 11:03:00,
2013-02-27 06:12:00,42.0,41.0,29.93,East,97,7.0,12.0,96,-99.99,,,-99.99,,2013-02-27 11:12:00,
2013-02-27 06:22:00,42.0,41.0,29.92,East,88,8.0,18.0,96,-99.99,,,-99.99,,2013-02-27 11:22:00,
2013-02-27 06:32:00,42.0,41.0,29.91,East,100,9.0,19.0,96,-99.99,,,-99.99,,2013-02-27 11:32:00,
2013-02-27 06:42:00,42.0,41.0,29.91,East,100,9.0,19.0,96,-99.99,,,-99.99,,2013-02-27 11:42:00,
2013-02-27 06:52:00,42.0,41.0,29.90,ESE,102,10.0,19.0,96,0.08,,,-99.99,,2013-02-27 11:52:00,
2013-02-27 07:02:00,42.0,41.0,29.88,ENE,68,9.0,20.0,96,0.10,,,-99.99,,2013-02-27 12:02:00,
2013-02-27 07:13:00,42.0,41.0,29.88,ENE,68,9.0,20.0,96,0.10,,,-99.99,,2013-02-27 12:13:00,
2013-02-27 07:22:00,42.0,41.0,29.88,East,83,8.0,21.0,96,0.11,,,-99.99,,2013-02-27 12:22:00,
2013-02-27 07:33:00,42.0,41.0,29.87,East,100,7.0,21.0,96,0.11,,,-99.99,,2013-02-27 12:33:00,
2013-02-27 07:42:00,42.0,41.0,29.87,East,100,7.0,21.0,96,0.11,,,-99.99,,2013-02-27 12:42:00,
2013-02-27 07:53:00,42.0,41.0,29.87,East,100,7.0,21.0,96,0.11,,,-99.99,,2013-02-27 12:53:00,
2013-02-27 08:02:00,42.0,41.0,29.87,ESE,104,9.0,19.0,96,-99.99,,,-99.99,,2013-02-27 13:02:00,
2013-02-27 08:11:00,42.0,41.0,29.87,ESE,104,9.0,19.0,96,-99.99,,,-99.99,,2013-02-27 13:11:00,
2013-02-27 08:22:00,42.0,41.0,29.87,ESE,115,8.0,19.0,96,-99.99,,,-99.99,,2013-02-27 13:22:00,
2013-02-27 08:32:00,42.0,41.0,29.86,SE,135,10.0,18.0,96,-99.99,,,-99.99,,2013-02-27 13:32:00,
2013-02-27 08:42:00,42.0,41.0,29.86,SE,135,10.0,18.0,96,-99.99,,,-99.99,,2013-02-27 13:42:00,
2013-02-27 08:52:00,42.0,41.0,29.87,SE,128,8.0,19.0,96,-99.99,,,-99.99,,2013-02-27 13:52:00,
2013-02-27 09:02:00,42.0,41.0,29.86,East,96,11.0,22.0,95,0.13,,,-99.99,,2013-02-27 14:02:00,
2013-02-27 09:12:00,42.0,41.0,29.86,East,96,11.0,22.0,95,0.13,,,-99.99,,2013-02-27 14:12:00,
2013-02-27 09:22:00,42.0,41.0,29.86,East,95,11.0,16.0,95,0.12,,,-99.99,,2013-02-27 14:22:00,
2013-02-27 09:32:00,42.0,41.0,29.84,ESE,115,10.0,23.0,95,0.13,,,-99.99,,2013-02-27 14:32:00,
2013-02-27 09:42:00,42.0,41.0,29.84,ESE,115,10.0,23.0,95,0.13,,,-99.99,,2013-02-27 14:42:00,
2013-02-27 09:52:00,42.0,41.0,29.83,East,84,7.0,19.0,95,0.16,,,-99.99,,2013-02-27 14:52:00,
2013-02-27 10:02:00,42.0,41.0,29.83,ESE,111,5.0,16.0,95,0.15,,,-99.99,,2013-02-27 15:02:00,
2013-02-27 10:12:00,42.0,41.0,29.83,ESE,111,5.0,16.0,95,0.15,,,-99.99,,2013-02-27 15:12:00,
2013-02-27 10:22:00,42.0,41.0,29.82,East,92,6.0,12.0,95,0.13,,,-99.99,,2013-02-27 15:22:00,
2013-02-27 10:32:00,42.0,41.0,29.81,SE,139,10.0,22.0,96,0.17,,,-99.99,,2013-02-27 15:32:00,
2013-02-27 10:42:00,42.0,41.0,29.81,SE,139,10.0,22.0,96,0.17,,,-99.99,,2013-02-27 15:42:00,
2013-02-27 10:52:00,42.0,41.0,29.80,ENE,75,7.0,19.0,96,0.18,,,-99.99,,2013-02-27 15:52:00,
2013-02-27 11:02:00,42.0,41.0,29.79,ENE,62,11.0,19.0,96,0.18,,,-99.99,,2013-02-27 16:02:00,
2013-02-27 11:12:00,42.0,41.0,29.79,ENE,62,11.0,19.0,96,0.18,,,-99.99,,2013-02-27 16:12:00,
2013-02-27 11:22:00,42.0,41.0,29.78,East,85,10.0,21.0,95,0.18,,,-99.99,,2013-02-27 16:22:00,
2013-02-27 11:32:00,42.0,41.0,29.77,East,101,12.0,19.0,95,0.16,,,-99.99,,2013-02-27 16:32:00,
2013-02-27 11:42:00,42.0,41.0,29.77,East,101,12.0,19.0,95,0.16,,,-99.99,,2013-02-27 16:42:00,
2013-02-27 11:52:00,42.0,41.0,29.77,ESE,115,8.0,23.0,95,0.18,,,-99.99,,2013-02-27 16:52:00,
2013-02-27 12:02:00,42.0,41.0,29.75,SSE,167,9.0,22.0,95,0.17,,,-99.99,,2013-02-27 17:02:00,
2013-02-27 12:11:00,42.0,41.0,29.75,SSE,167,9.0,22.0,95,0.17,,,-99.99,,2013-02-27 17:11:00,
2013-02-27 12:21:00,42.0,41.0,29.74,ENE,76,10.0,19.0,95,0.19,,,-99.99,,2013-02-27 17:21:00,
2013-02-27 12:32:00,42.0,41.0,29.74,East,81,10.0,22.0,95,0.19,,,-99.99,,2013-02-27 17:32:00,
2013-02-27 12:42:00,42.0,41.0,29.74,East,81,10.0,22.0,95,0.19,,,-99.99,,2013-02-27 17:42:00,
2013-02-27 12:52:00,41.0,40.0,29.72,East,82,7.0,27.0,95,0.16,,,-99.99,,2013-02-27 17:52:00,
2013-02-27 13:02:00,41.0,40.0,29.71,East,98,7.0,21.0,95,0.14,,,-99.99,,2013-02-27 18:02:00,
2013-02-27 13:11:00,41.0,40.0,29.71,East,98,7.0,21.0,95,0.14,,,-99.99,,2013-02-27 18:11:00,
2013-02-27 13:22:00,41.0,40.0,29.70,East,82,10.0,20.0,95,0.10,,,-99.99,,2013-02-27 18:22:00,
2013-02-27 13:32:00,41.0,40.0,29.69,ESE,123,6.0,24.0,95,0.08,,,-99.99,,2013-02-27 18:32:00,
2013-02-27 13:42:00,41.0,40.0,29.69,ESE,123,6.0,24.0,95,0.08,,,-99.99,,2013-02-27 18:42:00,
2013-02-27 13:52:00,41.0,40.0,29.68,NE,53,10.0,21.0,95,0.05,,,-99.99,,2013-02-27 18:52:00,
2013-02-27 14:01:00,41.0,40.0,29.69,East,96,10.0,19.0,95,0.03,,,-99.99,,2013-02-27 19:01:00,
2013-02-27 14:12:00,41.0,40.0,29.69,East,96,10.0,19.0,95,0.03,,,-99.99,,2013-02-27 19:12:00,
2013-02-27 14:21:00,42.0,41.0,29.66,NE,42,14.0,22.0,95,0.04,,,-99.99,,2013-02-27 19:21:00,
2013-02-27 14:32:00,42.0,41.0,29.65,East,83,7.0,20.0,95,0.02,,,-99.99,,2013-02-27 19:32:00,
2013-02-27 14:42:00,42.0,41.0,29.65,East,83,7.0,20.0,95,0.02,,,-99.99,,2013-02-27 19:42:00,
2013-02-27 14:52:00,42.0,41.0,29.64,ENE,77,17.0,29.0,95,0.01,,,-99.99,,2013-02-27 19:52:00,
2013-02-27 15:01:00,42.0,41.0,29.63,East,85,9.0,25.0,95,0.01,,,-99.99,,2013-02-27 20:01:00,
2013-02-27 15:12:00,42.0,41.0,29.63,East,85,9.0,25.0,95,0.01,,,-99.99,,2013-02-27 20:12:00,
2013-02-27 15:22:00,42.0,41.0,29.63,ESE,121,7.0,25.0,95,0.02,,,-99.99,,2013-02-27 20:22:00,
2013-02-27 15:32:00,42.0,41.0,29.62,ESE,102,9.0,21.0,95,0.09,,,-99.99,,2013-02-27 20:32:00,
2013-02-27 15:42:00,42.0,41.0,29.62,ESE,102,9.0,21.0,95,0.09,,,-99.99,,2013-02-27 20:42:00,
2013-02-27 15:52:00,42.0,41.0,29.62,ESE,117,15.0,22.0,96,0.10,,,-99.99,,2013-02-27 20:52:00,
2013-02-27 16:02:00,42.0,41.0,29.62,SE,125,6.0,15.0,95,0.10,,,-99.99,,2013-02-27 21:02:00,
2013-02-27 16:11:00,42.0,41.0,29.62,SE,125,6.0,15.0,95,0.10,,,-99.99,,2013-02-27 21:11:00,
2013-02-27 16:22:00,43.0,42.0,29.62,East,101,6.0,15.0,95,0.09,,,-99.99,,2013-02-27 21:22:00,
2013-02-27 16:32:00,43.0,42.0,29.61,ENE,63,4.0,16.0,95,0.02,,,-99.99,,2013-02-27 21:32:00,
2013-02-27 16:42:00,43.0,42.0,29.61,ENE,63,4.0,16.0,95,0.02,,,-99.99,,2013-02-27 21:42:00,
2013-02-27 16:52:00,43.0,42.0,29.60,SSE,150,10.0,21.0,95,0.01,,,-99.99,,2013-02-27 21:52:00,
2013-02-27 17:01:00,42.0,41.0,29.61,ESE,113,5.0,13.0,96,0.02,,,-99.99,,2013-02-27 22:01:00,
2013-02-27 17:11:00,42.0,41.0,29.61,ESE,113,5.0,13.0,96,0.02,,,-99.99,,2013-02-27 22:11:00,
2013-02-27 17:21:00,43.0,42.0,29.60,ESE,117,5.0,13.0,96,0.03,,,-99.99,,2013-02-27 22:21:00,
2013-02-27 17:32:00,43.0,42.0,29.60,ESE,121,2.0,11.0,96,0.05,,,-99.99,,2013-02-27 22:32:00,
2013-02-27 17:42:00,43.0,42.0,29.60,ESE,121,2.0,11.0,96,0.05,,,-99.99,,2013-02-27 22:42:00,
2013-02-27 17:52:00,43.0,42.0,29.60,East,94,1.0,7.0,96,-99.99,,,-99.99,,2013-02-27 22:52:00,
2013-02-27 18:01:00,43.0,42.0,29.59,ESE,121,1.0,6.0,96,-99.99,,,-99.99,,2013-02-27 23:01:00,
2013-02-27 18:11:00,43.0,42.0,29.59,ESE,121,1.0,6.0,96,-99.99,,,-99.99,,2013-02-27 23:11:00,
2013-02-27 18:21:00,43.0,42.0,29.59,East,80,2.0,6.0,96,-99.99,,,-99.99,,2013-02-27 23:21:00,
2013-02-27 18:32:00,43.0,42.0,29.59,East,83,2.0,6.0,96,-99.99,,,-99.99,,2013-02-27 23:32:00,
2013-02-27 18:42:00,43.0,42.0,29.59,East,83,2.0,6.0,96,-99.99,,,-99.99,,2013-02-27 23:42:00,
2013-02-27 18:53:00,43.0,42.0,29.59,NE,55,1.0,5.0,96,0.01,,,-99.99,,2013-02-27 23:53:00,
2013-02-27 19:02:00,43.0,42.0,29.58,East,87,5.0,12.0,96,0.00,,,-99.99,,2013-02-28 00:02:00,
2013-02-27 19:12:00,43.0,42.0,29.58,East,87,5.0,12.0,96,0.00,,,-99.99,,2013-02-28 00:12:00,
2013-02-27 19:21:00,43.0,42.0,29.57,East,84,0.0,6.0,96,0.00,,,-99.99,,2013-02-28 00:21:00,
2013-02-27 19:32:00,43.0,42.0,29.57,East,85,0.0,0.0,96,0.00,,,-99.99,,2013-02-28 00:32:00,
2013-02-27 19:42:00,43.0,42.0,29.57,East,85,0.0,0.0,96,0.00,,,-99.99,,2013-02-28 00:42:00,
2013-02-27 19:52:00,43.0,42.0,29.57,East,84,0.0,0.0,96,0.01,,,-99.99,,2013-02-28 00:52:00,
2013-02-27 20:01:00,43.0,42.0,29.57,East,84,0.0,0.0,96,0.01,,,-99.99,,2013-02-28 01:01:00,
2013-02-27 20:11:00,43.0,42.0,29.57,East,84,0.0,0.0,96,0.01,,,-99.99,,2013-02-28 01:11:00,
2013-02-27 20:22:00,43.0,42.0,29.56,East,85,0.0,3.0,96,0.01,,,-99.99,,2013-02-28 01:22:00,
2013-02-27 20:32:00,43.0,42.0,29.56,East,85,0.0,0.0,96,0.01,,,-99.99,,2013-02-28 01:32:00,
2013-02-27 20:42:00,43.0,42.0,29.56,East,85,0.0,0.0,96,0.01,,,-99.99,,2013-02-28 01:42:00,
2013-02-27 20:52:00,43.0,42.0,29.56,East,85,0.0,0.0,96,0.00,,,-99.99,,2013-02-28 01:52:00,
2013-02-27 21:01:00,42.0,41.0,29.56,East,85,0.0,1.0,96,0.00,,,-99.99,,2013-02-28 02:01:00,
2013-02-27 21:11:00,42.0,41.0,29.56,East,85,0.0,1.0,96,0.00,,,-99.99,,2013-02-28 02:11:00,
2013-02-27 21:22:00,42.0,41.0,29.56,South,188,1.0,5.0,96,0.00,,,-99.99,,2013-02-28 02:22:00,
2013-02-27 21:32:00,42.0,41.0,29.57,South,188,0.0,3.0,96,0.00,,,-99.99,,2013-02-28 02:32:00,
2013-02-27 21:41:00,42.0,41.0,29.57,South,188,0.0,3.0,96,0.00,,,-99.99,,2013-02-28 02:41:00,
2013-02-27 21:52:00,42.0,41.0,29.57,South,188,0.0,3.0,96,0.00,,,-99.99,,2013-02-28 02:52:00,
2013-02-27 22:00:00,42.0,41.0,29.57,South,188,0.0,0.0,96,-99.99,,,-99.99,,2013-02-28 03:00:00,
2013-02-27 22:01:00,42.0,41.0,29.56,South,188,0.0,5.0,96,0.00,,,-99.99,,2013-02-28 03:01:00,
2013-02-27 22:11:00,42.0,41.0,29.56,South,188,0.0,5.0,96,0.00,,,-99.99,,2013-02-28 03:11:00,
2013-02-27 22:21:00,42.0,41.0,29.57,South,188,0.0,0.0,96,-99.99,,,-99.99,,2013-02-28 03:21:00,
2013-02-27 22:32:00,42.0,41.0,29.57,South,188,0.0,0.0,96,-99.99,,,-99.99,,2013-02-28 03:32:00,
2013-02-27 22:42:00,42.0,41.0,29.57,South,188,0.0,0.0,96,-99.99,,,-99.99,,2013-02-28 03:42:00,
2013-02-27 22:52:00,42.0,41.0,29.57,South,188,0.0,0.0,96,-99.99,,,-99.99,,2013-02-28 03:52:00,